Time,TemperatureF,DewpointF,PressureIn,WindDirection,WindDirectionDegrees,WindSpeedMPH,WindSpeedGustMPH,Humidity,HourlyPrecipIn,Conditions,Clouds,dailyrainin,SoftwareType,DateUTC
2013-01-31 06:03:00,45.0,-99.9,30.43,East,101,5.0,6.0,-999,-99.99,,,-99.99,,2013-01-31 14:03:00,
2013-01-31 06:11:00,45.0,-99.9,30.43,East,100,7.0,9.0,-999,-99.99,,,-99.99,,2013-01-31 14:11:00,
2013-01-31 06:22:00,45.0,-99.9,30.43,ESE,103,8.0,9.0,-999,-99.99,,,-99.99,,2013-01-31 14:22:00,
2013-01-31 06:32:00,44.0,-99.9,30.43,East,95,4.0,7.0,-999,-99.99,,,-99.99,,2013-01-31 14:32:00,
2013-01-31 06:42:00,45.0,-99.9,30.43,East,90,4.0,6.0,-999,-99.99,,,-99.99,,2013-01-31 14:42:00,
2013-01-31 06:52:00,45.0,-99.9,30.43,ESE,109,6.0,7.0,-999,-99.99,,,-99.99,,2013-01-31 14:52:00,
2013-01-31 07:03:00,45.0,-99.9,30.43,NNE,19,0.0,6.0,-999,-99.99,,,-99.99,,2013-01-31 15:03:00,
2013-01-31 07:12:00,45.0,-99.9,30.43,NW,323,3.0,4.0,-999,-99.99,,,-99.99,,2013-01-31 15:12:00,
2013-01-31 07:23:00,45.0,-99.9,30.43,North,353,3.0,5.0,-999,-99.99,,,-99.99,,2013-01-31 15:23:00,
2013-01-31 07:32:00,44.0,-99.9,30.43,NNE,15,3.0,5.0,-999,-99.99,,,-99.99,,2013-01-31 15:32:00,
2013-01-31 07:42:00,44.0,-99.9,30.44,North,360,3.0,4.0,-999,-99.99,,,-99.99,,2013-01-31 15:42:00,
2013-01-31 07:52:00,44.0,-99.9,30.44,ENE,66,2.0,3.0,-999,-99.99,,,-99.99,,2013-01-31 15:52:00,
2013-01-31 08:04:00,44.0,-99.9,30.44,ESE,105,5.0,6.0,-999,-99.99,,,-99.99,,2013-01-31 16:04:00,
2013-01-31 08:13:00,44.0,-99.9,30.44,East,90,2.0,6.0,-999,-99.99,,,-99.99,,2013-01-31 16:13:00,
2013-01-31 08:22:00,44.0,-99.9,30.44,NE,36,1.0,2.0,-999,-99.99,,,-99.99,,2013-01-31 16:22:00,
2013-01-31 08:33:00,44.0,-99.9,30.44,WNW,300,-999.0,2.0,-999,-99.99,,,-99.99,,2013-01-31 16:33:00,
2013-01-31 08:42:00,44.0,-99.9,30.44,ESE,113,2.0,4.0,-999,-99.99,,,-99.99,,2013-01-31 16:42:00,
2013-01-31 08:52:00,44.0,-99.9,30.44,ESE,104,3.0,4.0,-999,-99.99,,,-99.99,,2013-01-31 16:52:00,
2013-01-31 09:03:00,44.0,-99.9,30.43,East,89,4.0,5.0,-999,-99.99,,,-99.99,,2013-01-31 17:03:00,
2013-01-31 09:13:00,44.0,-99.9,30.44,East,81,1.0,4.0,-999,-99.99,,,-99.99,,2013-01-31 17:13:00,
2013-01-31 09:23:00,44.0,-99.9,30.44,ENE,78,1.0,2.0,-999,-99.99,,,-99.99,,2013-01-31 17:23:00,
2013-01-31 09:32:00,45.0,-99.9,30.44,East,95,0.0,1.0,-999,-99.99,,,-99.99,,2013-01-31 17:32:00,
2013-01-31 09:44:00,44.0,-99.9,30.44,ESE,113,2.0,2.0,-999,-99.99,,,-99.99,,2013-01-31 17:44:00,
2013-01-31 09:53:00,44.0,-99.9,30.44,ESE,117,3.0,3.0,-999,-99.99,,,-99.99,,2013-01-31 17:53:00,
2013-01-31 10:03:00,45.0,-99.9,30.44,ESE,119,4.0,4.0,-999,-99.99,,,-99.99,,2013-01-31 18:03:00,
2013-01-31 10:13:00,45.0,-99.9,30.44,ESE,116,5.0,6.0,-999,-99.99,,,-99.99,,2013-01-31 18:13:00,
2013-01-31 10:22:00,45.0,-99.9,30.44,SE,137,5.0,6.0,-999,-99.99,,,-99.99,,2013-01-31 18:22:00,
2013-01-31 10:32:00,45.0,-99.9,30.44,SE,130,4.0,5.0,-999,-99.99,,,-99.99,,2013-01-31 18:32:00,
2013-01-31 10:43:00,45.0,-99.9,30.44,SE,127,5.0,5.0,-999,-99.99,,,-99.99,,2013-01-31 18:43:00,
2013-01-31 10:52:00,46.0,-99.9,30.43,SE,130,7.0,8.0,-999,-99.99,,,-99.99,,2013-01-31 18:52:00,
2013-01-31 11:03:00,46.0,-99.9,30.43,SE,126,7.0,8.0,-999,-99.99,,,-99.99,,2013-01-31 19:03:00,
2013-01-31 11:13:00,46.0,-99.9,30.42,SE,131,6.0,8.0,-999,-99.99,,,-99.99,,2013-01-31 19:13:00,
2013-01-31 11:22:00,47.0,-99.9,30.42,SE,133,6.0,7.0,-999,-99.99,,,-99.99,,2013-01-31 19:22:00,
2013-01-31 11:33:00,47.0,-99.9,30.42,SE,134,6.0,7.0,-999,-99.99,,,-99.99,,2013-01-31 19:33:00,
2013-01-31 11:43:00,47.0,-99.9,30.42,SE,128,6.0,7.0,-999,-99.99,,,-99.99,,2013-01-31 19:43:00,
2013-01-31 11:52:00,48.0,-99.9,30.42,SE,127,6.0,7.0,-999,-99.99,,,-99.99,,2013-01-31 19:52:00,
2013-01-31 12:03:00,49.0,-99.9,30.42,SE,138,4.0,5.0,-999,-99.99,,,-99.99,,2013-01-31 20:03:00,
2013-01-31 12:12:00,49.0,-99.9,30.42,SE,144,4.0,5.0,-999,-99.99,,,-99.99,,2013-01-31 20:12:00,
2013-01-31 12:22:00,50.0,-99.9,30.41,SSE,151,2.0,4.0,-999,-99.99,,,-99.99,,2013-01-31 20:22:00,
2013-01-31 12:32:00,51.0,-99.9,30.41,SSE,164,1.0,2.0,-999,-99.99,,,-99.99,,2013-01-31 20:32:00,
2013-01-31 12:42:00,52.0,-99.9,30.41,SSE,154,1.0,1.0,-999,-99.99,,,-99.99,,2013-01-31 20:42:00,
2013-01-31 12:52:00,53.0,-99.9,30.40,SE,142,1.0,1.0,-999,-99.99,,,-99.99,,2013-01-31 20:52:00,
2013-01-31 13:02:00,50.0,-99.9,30.40,SW,236,4.0,5.0,-999,-99.99,,,-99.99,,2013-01-31 21:02:00,
2013-01-31 13:12:00,50.0,-99.9,30.40,WSW,255,5.0,6.0,-999,-99.99,,,-99.99,,2013-01-31 21:12:00,
2013-01-31 13:22:00,50.0,-99.9,30.39,WSW,241,5.0,6.0,-999,-99.99,,,-99.99,,2013-01-31 21:22:00,
2013-01-31 13:32:00,50.0,-99.9,30.39,WSW,244,5.0,6.0,-999,-99.99,,,-99.99,,2013-01-31 21:32:00,
2013-01-31 13:42:00,50.0,-99.9,30.39,WSW,257,5.0,6.0,-999,-99.99,,,-99.99,,2013-01-31 21:42:00,
2013-01-31 13:52:00,50.0,-99.9,30.38,WSW,253,5.0,6.0,-999,-99.99,,,-99.99,,2013-01-31 21:52:00,
2013-01-31 14:03:00,51.0,-99.9,30.39,WSW,255,4.0,6.0,-999,-99.99,,,-99.99,,2013-01-31 22:03:00,
2013-01-31 14:11:00,50.0,-99.9,30.38,West,272,6.0,7.0,-999,-99.99,,,-99.99,,2013-01-31 22:11:00,
2013-01-31 14:22:00,50.0,-99.9,30.38,West,276,6.0,8.0,-999,-99.99,,,-99.99,,2013-01-31 22:22:00,
2013-01-31 14:33:00,50.0,-99.9,30.38,WNW,286,5.0,6.0,-999,-99.99,,,-99.99,,2013-01-31 22:33:00,
2013-01-31 14:42:00,50.0,-99.9,30.38,West,274,6.0,7.0,-999,-99.99,,,-99.99,,2013-01-31 22:42:00,
2013-01-31 14:52:00,50.0,-99.9,30.38,WNW,284,5.0,7.0,-999,-99.99,,,-99.99,,2013-01-31 22:52:00,
2013-01-31 15:03:00,50.0,-99.9,30.38,WNW,283,4.0,5.0,-999,-99.99,,,-99.99,,2013-01-31 23:03:00,
2013-01-31 15:12:00,50.0,-99.9,30.38,WNW,282,3.0,4.0,-999,-99.99,,,-99.99,,2013-01-31 23:12:00,
2013-01-31 15:22:00,50.0,-99.9,30.38,West,281,3.0,4.0,-999,-99.99,,,-99.99,,2013-01-31 23:22:00,
2013-01-31 15:32:00,50.0,-99.9,30.38,WNW,283,4.0,5.0,-999,-99.99,,,-99.99,,2013-01-31 23:32:00,
2013-01-31 15:42:00,50.0,-99.9,30.38,NW,309,4.0,6.0,-999,-99.99,,,-99.99,,2013-01-31 23:42:00,
2013-01-31 15:52:00,50.0,-99.9,30.38,NW,304,4.0,6.0,-999,-99.99,,,-99.99,,2013-01-31 23:52:00,
2013-01-31 16:02:00,50.0,-99.9,30.38,NW,305,3.0,4.0,-999,-99.99,,,-99.99,,2013-02-01 00:02:00,
2013-01-31 16:11:00,50.0,-99.9,30.38,WNW,292,3.0,4.0,-999,-99.99,,,-99.99,,2013-02-01 00:11:00,
2013-01-31 16:22:00,50.0,-99.9,30.38,WNW,282,4.0,4.0,-999,-99.99,,,-99.99,,2013-02-01 00:22:00,
2013-01-31 16:32:00,50.0,-99.9,30.38,WNW,292,3.0,5.0,-999,-99.99,,,-99.99,,2013-02-01 00:32:00,
2013-01-31 16:42:00,50.0,-99.9,30.38,WNW,291,3.0,4.0,-999,-99.99,,,-99.99,,2013-02-01 00:42:00,
2013-01-31 16:52:00,50.0,-99.9,30.37,WNW,302,2.0,5.0,-999,-99.99,,,-99.99,,2013-02-01 00:52:00,
2013-01-31 17:01:00,49.0,-99.9,30.37,WNW,299,2.0,3.0,-999,-99.99,,,-99.99,,2013-02-01 01:01:00,
2013-01-31 17:12:00,49.0,-99.9,30.37,WNW,288,1.0,2.0,-999,-99.99,,,-99.99,,2013-02-01 01:12:00,
2013-01-31 17:22:00,49.0,-99.9,30.36,SSW,206,2.0,3.0,-999,-99.99,,,-99.99,,2013-02-01 01:22:00,
2013-01-31 17:32:00,49.0,-99.9,30.37,West,271,4.0,4.0,-999,-99.99,,,-99.99,,2013-02-01 01:32:00,
2013-01-31 17:42:00,49.0,-99.9,30.37,West,275,2.0,3.0,-999,-99.99,,,-99.99,,2013-02-01 01:42:00,
2013-01-31 17:52:00,49.0,-99.9,30.37,WSW,251,1.0,2.0,-999,-99.99,,,-99.99,,2013-02-01 01:52:00,
2013-01-31 18:02:00,49.0,-99.9,30.36,South,189,1.0,2.0,-999,-99.99,,,-99.99,,2013-02-01 02:02:00,
2013-01-31 18:12:00,49.0,-99.9,30.36,SSE,164,1.0,2.0,-999,-99.99,,,-99.99,,2013-02-01 02:12:00,
2013-01-31 18:22:00,49.0,-99.9,30.37,NW,316,2.0,2.0,-999,-99.99,,,-99.99,,2013-02-01 02:22:00,
2013-01-31 18:32:00,49.0,-99.9,30.37,WNW,286,2.0,2.0,-999,-99.99,,,-99.99,,2013-02-01 02:32:00,
2013-01-31 18:42:00,49.0,-99.9,30.36,West,275,1.0,2.0,-999,-99.99,,,-99.99,,2013-02-01 02:42:00,
2013-01-31 18:52:00,49.0,-99.9,30.36,WSW,254,2.0,2.0,-999,-99.99,,,-99.99,,2013-02-01 02:52:00,
2013-01-31 19:02:00,49.0,-99.9,30.36,WSW,258,1.0,3.0,-999,-99.99,,,-99.99,,2013-02-01 03:02:00,
2013-01-31 19:12:00,49.0,-99.9,30.36,WSW,242,1.0,2.0,-999,-99.99,,,-99.99,,2013-02-01 03:12:00,
2013-01-31 19:22:00,49.0,-99.9,30.36,SW,226,0.0,1.0,-999,-99.99,,,-99.99,,2013-02-01 03:22:00,
2013-01-31 19:33:00,48.0,-99.9,30.36,SSW,197,2.0,2.0,-999,-99.99,,,-99.99,,2013-02-01 03:33:00,
2013-01-31 19:42:00,48.0,-99.9,30.36,SSE,166,2.0,2.0,-999,-99.99,,,-99.99,,2013-02-01 03:42:00,
2013-01-31 19:52:00,48.0,-99.9,30.36,ESE,117,4.0,4.0,-999,-99.99,,,-99.99,,2013-02-01 03:52:00,
2013-01-31 20:02:00,48.0,-99.9,30.36,ESE,108,2.0,3.0,-999,-99.99,,,-99.99,,2013-02-01 04:02:00,
2013-01-31 20:11:00,47.0,-99.9,30.36,ESE,107,4.0,4.0,-999,-99.99,,,-99.99,,2013-02-01 04:11:00,
2013-01-31 20:22:00,47.0,-99.9,30.36,ESE,103,2.0,4.0,-999,-99.99,,,-99.99,,2013-02-01 04:22:00,
2013-01-31 20:32:00,47.0,-99.9,30.36,ESE,123,2.0,3.0,-999,-99.99,,,-99.99,,2013-02-01 04:32:00,
2013-01-31 20:42:00,47.0,-99.9,30.36,ESE,107,2.0,2.0,-999,-99.99,,,-99.99,,2013-02-01 04:42:00,
2013-01-31 20:52:00,47.0,-99.9,30.36,ESE,117,2.0,3.0,-999,-99.99,,,-99.99,,2013-02-01 04:52:00,
2013-01-31 21:03:00,47.0,-99.9,30.36,ESE,108,3.0,3.0,-999,-99.99,,,-99.99,,2013-02-01 05:03:00,
2013-01-31 21:12:00,47.0,-99.9,30.36,ESE,118,3.0,4.0,-999,-99.99,,,-99.99,,2013-02-01 05:12:00,
2013-01-31 21:22:00,47.0,-99.9,30.36,ESE,114,4.0,5.0,-999,-99.99,,,-99.99,,2013-02-01 05:22:00,
2013-01-31 21:32:00,47.0,-99.9,30.36,ESE,108,5.0,5.0,-999,-99.99,,,-99.99,,2013-02-01 05:32:00,
2013-01-31 21:42:00,47.0,-99.9,30.36,ESE,110,5.0,5.0,-999,-99.99,,,-99.99,,2013-02-01 05:42:00,
2013-01-31 21:52:00,47.0,-99.9,30.36,SE,125,5.0,5.0,-999,-99.99,,,-99.99,,2013-02-01 05:52:00,
2013-01-31 22:02:00,47.0,-99.9,30.36,SE,143,4.0,4.0,-999,-99.99,,,-99.99,,2013-02-01 06:02:00,
2013-01-31 22:12:00,47.0,-99.9,30.36,SE,127,3.0,4.0,-999,-99.99,,,-99.99,,2013-02-01 06:12:00,
2013-01-31 22:22:00,47.0,-99.9,30.36,ESE,118,3.0,3.0,-999,-99.99,,,-99.99,,2013-02-01 06:22:00,
2013-01-31 22:32:00,47.0,-99.9,30.35,East,98,4.0,5.0,-999,-99.99,,,-99.99,,2013-02-01 06:32:00,
2013-01-31 22:42:00,47.0,-99.9,30.35,East,101,5.0,6.0,-999,-99.99,,,-99.99,,2013-02-01 06:42:00,
2013-01-31 22:52:00,47.0,-99.9,30.36,SE,132,4.0,6.0,-999,-99.99,,,-99.99,,2013-02-01 06:52:00,
2013-01-31 23:02:00,47.0,-99.9,30.36,SE,146,4.0,5.0,-999,-99.99,,,-99.99,,2013-02-01 07:02:00,
2013-01-31 23:12:00,47.0,-99.9,30.35,SE,133,4.0,5.0,-999,-99.99,,,-99.99,,2013-02-01 07:12:00,
2013-01-31 23:22:00,47.0,-99.9,30.35,East,92,2.0,5.0,-999,-99.99,,,-99.99,,2013-02-01 07:22:00,
2013-01-31 23:32:00,47.0,-99.9,30.36,East,97,4.0,5.0,-999,-99.99,,,-99.99,,2013-02-01 07:32:00,
2013-01-31 23:42:00,47.0,-99.9,30.36,SE,127,4.0,4.0,-999,-99.99,,,-99.99,,2013-02-01 07:42:00,
2013-01-31 23:52:00,46.0,-99.9,30.36,ESE,120,4.0,5.0,-999,-99.99,,,-99.99,,2013-02-01 07:52:00,